Hourly Data Report for November 26, 2014

All times are specified in Local Standard Time (LST). Add 1 hour to adjust for Daylight Saving Time where and when it is observed.

Metadata including Station Name, Province, Latitude, Longitude, Elevation, Climate ID, WMO ID, TC ID
PUVIRNITUQ A
QUEBEC
Latitude: 60°03'08.000" N Longitude: 77°17'15.000" W Elevation: 25.30 m
Climate ID: 7106223 WMO ID: TC ID: YPX
Hourly Data Report for November 26, 2014
Temp Definition
°C

Dew Point Temp Definition
°C

Rel Hum Definition
%

Wind Dir Definition
10's deg
Wind Spd Definition
km/h

Visibility Definition
km

Stn Press Definition
kPa

Hmdx Definition

Wind Chill Definition

Weather Definition

00:00 Legend Double Dagger -14.6 -15.8 91 14 28 16.1 99.82 -25 Snow
01:00 Legend Double Dagger -14.3 -15.5 91 14 30 16.1 99.76 -25 LegendNANA
02:00 Legend Double Dagger -14.2 -15.4 91 14 35 9.7 99.73 -26 Fog
03:00 Legend Double Dagger -12.9 -13.9 92 15 30 3.6 99.73 -23 Snow
04:00 Legend Double Dagger -11.9 -12.8 93 17 28 3.6 99.74 -22 Snow
05:00 Legend Double Dagger -11.2 -12.0 94 18 24 2.8 99.75 -20 Snow
06:00 Legend Double Dagger -11.7 -12.6 93 30 43 1.2 99.87 -23 Snow,Blowing Snow
07:00 Legend Double Dagger -13.2 -14.2 92 31 32 4.8 99.99 -24 Snow
08:00 Legend Double Dagger -13.3 -14.4 91 33 21 16.1 100.09 -22 Snow
09:00 Legend Double Dagger -12.3 -13.2 93 32 24 1.0 100.19 -22 Snow
10:00 Legend Double Dagger -12.8 -13.8 92 33 21 3.6 100.27 -22 Snow
11:00 Legend Double Dagger -12.8 -13.8 92 31 15 1.2 100.34 -20 Snow
12:00 Legend Double Dagger -13.1 -14.1 92 32 9 1.2 100.42 -19 Snow
13:00 Legend Double Dagger -12.7 -13.6 93 29 15 1.6 100.51 -20 Snow
14:00 Legend Double Dagger -12.5 -13.9 89 28 32 1.6 100.60 -23 Snow
15:00 Legend Double Dagger -12.4 -13.6 91 29 28 1.2 100.71 -22 Snow
16:00 Legend Double Dagger -12.6 -14.3 87 30 22 8.1 100.77 -22 Snow
17:00 Legend Double Dagger -11.7 -14.2 82 27 26 16.1 100.82 -21 Snow
18:00 Legend Double Dagger -11.6 -12.9 90 26 26 4.0 100.89 -21 Snow
19:00 Legend Double Dagger -11.5 -13.7 84 28 24 9.7 100.93 -21 Snow
20:00 Legend Double Dagger -11.3 -13.4 85 LegendMM LegendMM LegendMM 100.95 LegendNANA
21:00 Legend Double Dagger -11.5 -13.1 88 30 28 16.1 100.97 -21 Snow
22:00 Legend Double Dagger -11.7 -14.6 79 27 22 12.9 100.99 -20 Snow
23:00 Legend Double Dagger -12.1 -15.3 77 28 17 16.1 101.00 -20 LegendNANA

Notes on Data Quality.

Legend
  • E = Estimated
  • M = Missing
  • NA = Not Available
  • ‡ = Partner data that is not subject to review by the National Climate Archives